Satellite: NO-44
Catalog number: 26931
Epoch time:      10356.81595276
Element set:     637
Inclination:      067.0530 deg
RA of node:       077.9736 deg
Eccentricity:    0.0006368
Arg of perigee:   276.7349 deg
Mean anomaly:     083.3057 deg
Mean motion:   14.29627188 rev/day
Decay rate:       1.98e-06 rev/day^2
Epoch rev:           48171
Checksum:              347

Satellite: SO-50
Catalog number: 27607
Epoch time:      10356.86301078
Element set:     348
Inclination:      064.5560 deg
RA of node:       143.3945 deg
Eccentricity:    0.0052060
Arg of perigee:   004.6952 deg
Mean anomaly:     355.4634 deg
Mean motion:   14.71622131 rev/day
Decay rate:        8.1e-07 rev/day^2
Epoch rev:           43014
Checksum:              274

Satellite: CO-55
Catalog number: 27844
Epoch time:      10357.04792253
Element set:       5
Inclination:      098.7079 deg
RA of node:       003.3071 deg
Eccentricity:    0.0009953
Arg of perigee:   351.3168 deg
Mean anomaly:     008.7825 deg
Mean motion:   14.20756568 rev/day
Decay rate:       1.14e-06 rev/day^2
Epoch rev:           38790
Checksum:              312

Satellite: CO-57
Catalog number: 27848
Epoch time:      10356.54187460
Element set:    0955
Inclination:      098.7136 deg
RA of node:       001.9434 deg
Eccentricity:    0.0010027
Arg of perigee:   357.0281 deg
Mean anomaly:     003.0836 deg
Mean motion:   14.20543489 rev/day
Decay rate:        9.8e-07 rev/day^2
Epoch rev:           38778
Checksum:              322

Satellite: AO-51
Catalog number: 28375
Epoch time:      10357.40338828
Element set:     854
Inclination:      098.0777 deg
RA of node:       340.2963 deg
Eccentricity:    0.0082882
Arg of perigee:   243.5098 deg
Mean anomaly:     115.7578 deg
Mean motion:   14.40716523 rev/day
Decay rate:        4.1e-07 rev/day^2
Epoch rev:           34075
Checksum:              326

Satellite: CP3
Catalog number: 31129
Epoch time:      10357.54427460
Element set:     754
Inclination:      097.9172 deg
RA of node:       026.7668 deg
Eccentricity:    0.0102387
Arg of perigee:   006.9783 deg
Mean anomaly:     353.2790 deg
Mean motion:   14.52353165 rev/day
Decay rate:        7.1e-07 rev/day^2
Epoch rev:           19534
Checksum:              311

Satellite: CO-65
Catalog number: 32785
Epoch time:      10357.65439885
Element set:     869
Inclination:      097.8736 deg
RA of node:       059.7240 deg
Eccentricity:    0.0015527
Arg of perigee:   032.0086 deg
Mean anomaly:     328.2062 deg
Mean motion:   14.81791663 rev/day
Decay rate:       -2.3e-07 rev/day^2
Epoch rev:           14354
Checksum:              332

Satellite: KKS-1
Catalog number: 33493
Epoch time:      10357.82082602
Element set:     154
Inclination:      098.1040 deg
RA of node:       119.1984 deg
Eccentricity:    0.0018780
Arg of perigee:   246.5541 deg
Mean anomaly:     113.3699 deg
Mean motion:   14.81253329 rev/day
Decay rate:       6.47e-06 rev/day^2
Epoch rev:           10355
Checksum:              294

Satellite: SOHLA-1
Catalog number: 33496
Epoch time:      10357.86074084
Element set:     288
Inclination:      098.0697 deg
RA of node:       104.6281 deg
Eccentricity:    0.0005909
Arg of perigee:   329.0611 deg
Mean anomaly:     031.0238 deg
Mean motion:   14.69542847 rev/day
Decay rate:       -3.1e-07 rev/day^2
Epoch rev:           10273
Checksum:              299

Satellite: TISAT-1
Catalog number: 36799
Epoch time:      10357.74025444
Element set:     428
Inclination:      098.1273 deg
RA of node:       059.1012 deg
Eccentricity:    0.0016428
Arg of perigee:   121.2144 deg
Mean anomaly:     239.0693 deg
Mean motion:   14.80270398 rev/day
Decay rate:       4.45e-06 rev/day^2
Epoch rev:            2435
Checksum:              290

Satellite: STUDSAT
Catalog number: 36801
Epoch time:      10356.78076417
Element set:     108
Inclination:      098.1279 deg
RA of node:       058.0032 deg
Eccentricity:    0.0014734
Arg of perigee:   113.3024 deg
Mean anomaly:     246.9737 deg
Mean motion:   14.79896375 rev/day
Decay rate:      1.244e-05 rev/day^2
Epoch rev:            2420
Checksum:              293

Satellite: RAX
Catalog number: 37223
Epoch time:      10353.90352991
Element set:    0032
Inclination:      071.9733 deg
RA of node:       074.4043 deg
Eccentricity:    0.0022783
Arg of perigee:   260.5546 deg
Mean anomaly:     099.3039 deg
Mean motion:   14.77200390 rev/day
Decay rate:       4.38e-06 rev/day^2
Epoch rev:           00441
Checksum:              273

Satellite: OOREOS
Catalog number: 37224
Epoch time:      10352.42005071
Element set:    0033
Inclination:      071.9730 deg
RA of node:       077.7123 deg
Eccentricity:    0.0021502
Arg of perigee:   260.6953 deg
Mean anomaly:     099.1778 deg
Mean motion:   14.76865884 rev/day
Decay rate:       3.39e-06 rev/day^2
Epoch rev:           00418
Checksum:              284

Satellite: FASTSAT
Catalog number: 37225
Epoch time:      10339.55430316
Element set:    0021
Inclination:      071.9720 deg
RA of node:       106.1057 deg
Eccentricity:    0.0019965
Arg of perigee:   280.4841 deg
Mean anomaly:     079.4053 deg
Mean motion:   14.76483442 rev/day
Decay rate:        4.1e-07 rev/day^2
Epoch rev:           00228
Checksum:              266

